[TLELIST] Archives

 

[TLELIST] Current TLEs

January 14th 2024 PDT

HST 1 20580U 90037B 24013.24839067 .00007129 00000-0 35643-3 0 9996 2 20580 28.4699 308.0639 0002576 135.8471 349.0591 15.15518592653336 ISS (ZARYA) 1 25544U 98067A 24014.37346274 .00015662 00000-0 28800-3 0 9998 2 25544 51.6431 2.4387 0004979 90.2866 55.1910 15.49377144434542 CXO 1 25867U 99040B 24009.20773412 .00000606 00000-0 00000+0 0 9992 2 25867 38.2285 170.7177 9004772 283.7284 0.3392 0.37813899 25115 ...Continue Reading

[TLELIST] Current TLEs

January 13th 2024 PDT

HST 1 20580U 90037B 24012.97509660 .00007010 00000-0 35035-3 0 9992 2 20580 28.4700 309.8883 0002586 132.9037 297.9767 15.15514497653297 ISS (ZARYA) 1 25544U 98067A 24013.33307216 .00118192 00000-0 20926-2 0 9998 2 25544 51.6402 7.5856 0004874 89.8117 8.8574 15.49380128434383 CXO 1 25867U 99040B 24009.20773412 .00000606 00000-0 00000+0 0 9992 2 25867 38.2285 170.7177 9004772 283.7284 0.3392 0.37813899 25115 ...Continue Reading

[TLELIST] Current TLEs

January 12th 2024 PDT

HST 1 20580U 90037B 24012.19651178 .00007008 00000-0 35039-3 0 9999 2 20580 28.4702 315.0868 0002590 124.2408 10.3455 15.15503331653434 ISS (ZARYA) 1 25544U 98067A 24012.37491745 .00015484 00000-0 27586-3 0 9992 2 25544 51.6421 12.3248 0004254 24.5531 125.2537 15.50292054434230 CXO 1 25867U 99040B 24009.20773412 .00000606 00000-0 00000+0 0 9992 2 25867 38.2285 170.7177 9004772 283.7284 0.3392 0.37813899 25115 ...Continue Reading

[TLELIST] Current TLEs

January 11th 2024 PDT

HST 1 20580U 90037B 24010.28323428 .00005912 00000-0 29430-3 0 9991 2 20580 28.4707 327.8603 0002613 104.9653 10.4281 15.15476605652889 ISS (ZARYA) 1 25544U 98067A 24011.26829558 .00014096 00000-0 25226-3 0 9993 2 25544 51.6427 17.8113 0003857 19.3092 70.3630 15.50251603434069 CXO 1 25867U 99040B 24009.20773412 .00000606 00000-0 00000+0 0 9992 2 25867 38.2285 170.7177 9004772 283.7284 0.3392 0.37813899 25115 ...Continue Reading

[TLELIST] Current TLEs

January 10th 2024 PDT

HST 1 20580U 90037B 24009.94110091 .00005803 00000-0 28874-3 0 9992 2 20580 28.4707 330.1444 0002630 100.8746 304.2189 15.15472659652837 ISS (ZARYA) 1 25544U 98067A 24010.36613804 .00013217 00000-0 23730-3 0 9990 2 25544 51.6415 22.2811 0003737 16.1791 75.3425 15.50221648433926 CXO 1 25867U 99040B 24009.20773412 .00000606 00000-0 00000+0 0 9992 2 25867 38.2285 170.7177 9004772 283.7284 0.3392 0.37813899 25115 ...Continue Reading

[TLELIST] Current TLEs

January 10th 2024 PDT

HST 1 20580U 90037B 24009.94110091 .00005803 00000-0 28874-3 0 9992 2 20580 28.4707 330.1444 0002630 100.8746 304.2189 15.15472659652837 ISS (ZARYA) 1 25544U 98067A 24010.36613804 .00013217 00000-0 23730-3 0 9990 2 25544 51.6415 22.2811 0003737 16.1791 75.3425 15.50221648433926 CXO 1 25867U 99040B 24009.20773412 .00000606 00000-0 00000+0 0 9992 2 25867 38.2285 170.7177 9004772 283.7284 0.3392 0.37813899 25115 ...Continue Reading

[TLELIST] Current TLEs

January 9th 2024 PDT

HST 1 20580U 90037B 24009.23146840 .00005737 00000-0 28540-3 0 9991 2 20580 28.4708 334.8816 0002614 94.8045 31.0423 15.15464529652987 ISS (ZARYA) 1 25544U 98067A 24009.14485957 .00012699 00000-0 22862-3 0 9998 2 25544 51.6421 28.3323 0003486 10.7154 100.6642 15.50186174433738 CXO 1 25867U 99040B 24009.20773412 .00000606 00000-0 00000+0 0 9992 2 25867 38.2285 170.7177 9004772 283.7284 0.3392 0.37813899 25115 ...Continue Reading

[TLELIST] Current TLEs

January 8th 2024 PDT

HST 1 20580U 90037B 24008.17325462 .00004994 00000-0 24724-3 0 9996 2 20580 28.4708 341.9461 0002590 85.8695 15.2294 15.15452246652822 ISS (ZARYA) 1 25544U 98067A 24008.56406552 .00012956 00000-0 23319-3 0 9991 2 25544 51.6421 31.2116 0003831 9.9657 98.0661 15.50171775433645 CXO 1 25867U 99040B 24009.20773412 .00000606 00000-0 00000+0 0 9992 2 25867 38.2285 170.7177 9004772 283.7284 0.3392 0.37813899 25115 ...Continue Reading

[TLELIST] Current TLEs

January 7th 2024 PDT

HST 1 20580U 90037B 24006.39976207 .00004556 00000-0 22482-3 0 9990 2 20580 28.4707 353.7860 0002559 67.8986 58.4595 15.15434685652294 ISS (ZARYA) 1 25544U 98067A 24007.53059513 .00013535 00000-0 24346-3 0 9993 2 25544 51.6418 36.3373 0003824 5.5292 91.3413 15.50145959433489 CXO 1 25867U 99040B 24009.20773412 .00000606 00000-0 00000+0 0 9992 2 25867 38.2285 170.7177 9004772 283.7284 0.3392 0.37813899 25115 ...Continue Reading

[TLELIST] Current TLEs

January 6th 2024 PDT

HST 1 20580U 90037B 24005.41146123 .00004705 00000-0 23257-3 0 9995 2 20580 28.4707 0.3837 0002509 58.3908 65.4999 15.15425905652142 ISS (ZARYA) 1 25544U 98067A 24006.10343839 .00013513 00000-0 24341-3 0 9993 2 25544 51.6420 43.4050 0003449 357.7277 49.7085 15.50107936433262 CXO 1 25867U 99040B 24009.20773412 .00000606 00000-0 00000+0 0 9992 2 25867 38.2285 170.7177 9004772 283.7284 0.3392 0.37813899 25115 ...Continue Reading
  • This mailing list is a public mailing list - anyone may join or leave, at any time.
  • This mailing list is announce-only.

International Space Station (ISS) / Hubble Space Telescope (HST) / Chandra X-Ray Observatory Orbital Data via EMAIL

Privacy Policy:

Private list